Terug naar catalogus

SDA_1669

ActiefMilitairPO
NORAD 65979·PAYLOAD·🇺🇸 United States

Gelanceerd Oct 15, 2025 vanaf Vandenberg Space Force Base

Loading…

Volgende Passages (komende 24 uur)

TLE

VersSource: Space-Track

Epoch: Sep 14, 2026, 21:02 UTC

1 65979U 25230F   26257.87669564  .00000101  00000-0  83764-4 0  9995
2 65979  81.3000 128.7317 0003353 341.9659  18.1377 13.81708275 46212

Volg SDA_1669 in realtime met AllMySat

Download on the App Store